STARLINK-1809 (46708 NORAD) Tracking and Keplerian Element Data
This shows tracking and keplerian element data for the satellite.
Feedback or suggestion? Click here.
Element | Value |
Catalog | 46708 |
Name | STARLINK-1809 |
Epoch Orbit | 181 |
Epoch Day | 17.91667824 |
Epoch Year | 2021 |
RAAN | 21.1343 |
Inclination | 53.0553 |
Eccentricity | 0.0004266 |
Argument of Perigee | 335.4134 |
Mean Anonmoly | 84.0387 |
Mean Motion | 15.59855375 |
Decay Rate | -0.01118038 |
L1 | 1 46708U 20073AQ 21017.91667824 -.01118038 00000-0 -15062-1 0 9990 |
L2 | 2 46708 53.0553 21.1343 0004266 335.4134 84.0387 15.59855375 1816 |
Live tracking and technical data element details for STARLINK-1809 (NORAD 46708). STARLINK-1809 can be tracked NOW for your location showing map with azimuth and elevation plus other details from your city location.
Track the satellite on the map from your city or location and see movement details for azimuth, elevation, latitude, longitude, range, height, and movement on the map or in text.
IsCatalogInMostPopularTable: catalog: 46708, numindb: 30
Update: records affected: 1
GetName: 46708 STARLINK-1809
Hit Count: updated at: Tue, 19 Jan 2021 03:03:38 GMT